| time (UTC) | temp F | wind direction | speed MPH | gust MPH | rain 1hr in | rain 24hr in | rain mn in | humidity % | barometer mb |
| 20260905183204 | 65 | 37 | 6.0 | 9.0 | 0.00 | 0.20 | 0.00 | 78 | 1018.4 |
| 20260905182703 | 65 | 1 | 5.0 | 8.0 | 0.00 | 0.20 | 0.00 | 78 | 1018.4 |
| 20260905182204 | 65 | 15 | 6.0 | 12.0 | 0.00 | 0.20 | 0.00 | 78 | 1018.4 |
| 20260905181703 | 65 | 15 | 6.0 | 9.0 | 0.00 | 0.20 | 0.00 | 79 | 1018.4 |
| 20260905181203 | 64 | 11 | 4.0 | 9.0 | 0.00 | 0.20 | 0.00 | 79 | 1018.4 |
| 20260905180704 | 65 | 8 | 6.0 | 9.0 | 0.00 | 0.20 | 0.00 | 78 | 1018.5 |
| 20260905180203 | 65 | 353 | 4.0 | 9.0 | 0.00 | 0.20 | 0.00 | 80 | 1018.5 |
| 20260905175704 | 64 | 12 | 4.0 | 8.0 | 0.00 | 0.20 | 0.00 | 79 | 1018.5 |
| 20260905175205 | 64 | 8 | 5.0 | 8.0 | 0.00 | 0.20 | 0.00 | 80 | 1018.5 |
| 20260905174703 | 64 | 236 | 1.0 | 3.0 | 0.00 | 0.20 | 0.00 | 79 | 1018.5 |
| 20260905174203 | 64 | 272 | 2.0 | 3.0 | 0.00 | 0.20 | 0.00 | 79 | 1018.5 |
| 20260905173704 | 64 | 307 | 2.0 | 3.0 | 0.00 | 0.20 | 0.00 | 79 | 1018.5 |
| 20260905173203 | 64 | 315 | 3.0 | 6.0 | 0.00 | 0.20 | 0.00 | 79 | 1018.4 |
| 20260905172704 | 64 | 287 | 3.0 | 6.0 | 0.00 | 0.20 | 0.00 | 80 | 1018.4 |
| 20260905172204 | 64 | 324 | 3.0 | 6.0 | 0.00 | 0.20 | 0.00 | 80 | 1018.4 |
| 20260905171704 | 64 | 312 | 3.0 | 7.0 | 0.00 | 0.20 | 0.00 | 82 | 1018.4 |
| 20260905171204 | 64 | 12 | 1.0 | 5.0 | 0.00 | 0.20 | 0.00 | 81 | 1018.5 |
| 20260905170704 | 64 | 324 | 3.0 | 6.0 | 0.00 | 0.20 | 0.00 | 82 | 1018.5 |
| 20260905170204 | 63 | 111 | 1.0 | 3.0 | 0.00 | 0.20 | 0.00 | 84 | 1018.4 |
| 20260905165704 | 63 | 302 | 3.0 | 5.0 | 0.00 | 0.20 | 0.00 | 85 | 1018.4 |
| 20260905165204 | 63 | 310 | 2.0 | 3.0 | 0.00 | 0.20 | 0.00 | 86 | 1018.3 |
| 20260905164703 | 62 | 349 | 2.0 | 5.0 | 0.00 | 0.20 | 0.00 | 86 | 1018.3 |
| 20260905164204 | 32 | 252 | 0.0 | 2.0 | 0.00 | 0.20 | 0.00 | 100 |